sat.trackr.live / text

‹ back to catalog

STARLINK-35768

NORAD 66832 · 2025-280M

PAYLOAD ACTIVE UNKNOWN

§ Identity

Operator
Country
US
Launch date
2025-12-02
Launch site
AFWTR
Launch vehicle
Mass (kg)
RCS (m²)

Purposes: comms

External: N2YO · Heavens-Above · Gunter

§ Orbital elements

Epoch: 2026-09-20T13:22:53.816448Z

Period
96.11 min
Inclination
70.0012°
Eccentricity
0.0003009
Mean motion
14.98345279 rev/d
Perigee alt
569.9 km
Apogee alt
574.1 km
Semi-major
6,950.1 km
B*
4.1315e-4
RAAN
203.1869°
Arg perigee
271.0893°
Mean anomaly
88.9922°
Rev number
4,526

§ Raw data

STARLINK-357681 66832U 25280M   26263.55756732  .00004842  00000+0  41315-3 0  99952 66832  70.0012 203.1869 0003009 271.0893  88.9922 14.98345279 45265

JSON: /api/v1/satellites/66832 · /tle

For live sub-satellite position, see the globe view (requires WebGL).

§ Visibility from observer

Set your observer location to see the next 7 days of passes ≥ 10°. The values pass through the URL so the page stays shareable.

No JS? Fill the form by hand. The geolocation button needs JavaScript.